Location: Banksville Park
(38.5557°N, 75.1182°W)
Time: 18:27:27
(UTC+00:00)

SAR-Lupe-1 - Pass Details

Date: 22 January 2021
Orbit: 482 x 484 km, 98.2° (Epoch: 02 March)

Event Time Altitude Azimuth Distance (km) Brightness Sun altitude
Exits shadow 00:34:46 - 333° (NNW) 1,746 7.1 -28.0°
Reaches altitude 10° 00:35:04 10° 329° (NNW) 1,668 7.1 -28.1°
Maximum altitude 00:37:11 15° 293° (WNW) 1,373 7.0 -28.5°
Drops below altitude 10° 00:39:18 10° 256° (WSW) 1,660 7.7 -28.9°
Sets 00:42:00 0° 233° (SW) 2,534 8.5 -29.4°
